Regional Weather Roundup
Issued by NWS Cleveland, OH

Home | Current Version | Previous Version | Text Only | Print | Product List | Glossary Off
Versions: 1 2 3 4 5 6 7 8 9 10 11 12 13 14 15 16 17 18 19 20 21 22 23 24 25 26 27 28 29 30 31 32 33 34 35 36 37 38 39 40 41 42 43 44 45 46 47 48 49 50

000
ASUS41 KCLE 210302
RWRCLE
OHIO REGIONAL WEATHER ROUNDUP
NATIONAL WEATHER SERVICE CLEVELAND, OH
1100 PM EDT WED AUG 20 2014

NOTE: "FAIR" INDICATES FEW OR NO CLOUDS BELOW 12,000 FEET WITH NO
SIGNIFICANT WEATHER AND/OR OBSTRUCTIONS TO VISIBILITY.

OHZ001>008-015>018-024>027-034-035-043-044-210400-
   NORTHWEST OHIO

CITY           SKY/WX    TMP DP  RH WIND       PRES   REMARKS
DEFIANCE       CLEAR     71  67  87 CALM      29.97R
FINDLAY        CLEAR     73  66  78 CALM      29.97R
TOLEDO EXPRESS CLEAR     68  66  93 CALM      29.96R
TOLEDO EXEC    CLEAR     70  64  81 CALM      29.97R
LIMA           PTCLDY    72  66  81 S6        29.99R
$$

OHZ009>014-019>023-028>033-038-089-210400-
   NORTHEAST OHIO

CITY           SKY/WX    TMP DP  RH WIND       PRES   REMARKS
CLE-HOPKINS    PTCLDY    70  66  87 W3        29.98R
CLE-LAKEFRONT  CLEAR     75  69  81 S6        29.95R
CUY CO. ARPT   PTCLDY    72  68  88 S7        29.96R
LORAIN-ELYRIA  CLEAR     72  68  87 CALM      29.98R
ASHTABULA      CLEAR     67  65  93 S5        29.97R
AKRON-CANTON   PTCLDY    72  67  84 SW3       29.99R
WOOSTER        CLEAR     68  64  87 CALM      30.00R
MANSFIELD      CLEAR     70  65  84 SW3       30.01R
YOUNGSTOWN     MOCLDY    69  66  90 S6        29.99R
$$

OHZ042-051>053-060>062-070>072-077>081-210400-
  SOUTHWEST OHIO

CITY           SKY/WX    TMP DP  RH WIND       PRES   REMARKS
CINC-COVINGTON CLOUDY    71  68  90 SW6       30.05R
CINC-LUNKEN    MOCLDY    71  68  90 S6        30.04R
HAMILTON       MOCLDY    73  69  87 VRB3      30.03S
DAYTON         PTCLDY    74  66  76 SW7       30.03R
WRIGHT-PAT AFB CLEAR     75  67  76 SW8       30.02R
DAYTON GENERAL PTCLDY    73  67  81 S5        30.03R
WILMINGTON     PTCLDY    71  66  84 SW7       30.03R
$$

OHZ036-037-039>041-045>050-054>059-063>069-073>076-082>088-210400-
  CENTRAL AND SOUTHEAST OHIO

CITY           SKY/WX    TMP DP  RH WIND       PRES   REMARKS
COLUMBUS       PTCLDY    79  65  62 SW7       30.00R
OSU AIRPORT    PTCLDY    75  65  70 SW8       30.01R
BOLTON FIELD   PTCLDY    69  67  92 SW8       30.02R
RICKENBACK AFB CLEAR     73  63  71 SW6       30.00R
NEWARK         CLEAR     68  66  93 W3        30.00R FOG
MARION         CLEAR     71  66  84 SW3       30.00R
LANCASTER      CLEAR     71  65  81 SW3       30.01R
ZANESVILLE     CLEAR     68  66  93 S3        30.00R
NEW PHILLY     CLEAR     66  66 100 E3        30.00R FOG
$$


USA.gov is the U.S. government's official web portal to all federal, state and local government web resources and services.